Weather History for KVAD - April, 2013

Change the Weather History Date:

Friday, April 5, 2013

  Actual Average Record
Temperature  
Mean Temperature 52 °F -  
Max Temperature 57 °F 75 °F 87 °F (1999)
Min Temperature 47 °F 55 °F 46 °F (2004)
Degree Days  
Heating Degree Days 12    
Growing Degree Days 2 (Base 50)    
Moisture  
Dew Point 50 °F    
Average Humidity 95    
Maximum Humidity 100    
Minimum Humidity 71    
Precipitation  
Precipitation 0.01 in - - ()
Sea Level Pressure  
Sea Level Pressure 29.94 in    
Wind  
Wind Speed 9 mph (North)    
Max Wind Speed 15 mph    
Max Gust Speed -    
Visibility 10 miles    
Events Rain    
Averages and records for this station are not official NWS values.
T = Trace of Precipitation, MM = Missing Value Source: NWS Daily Summary

Daily Weather History Graph

Daily Weather History Graph

Search for Another Location

Airport or City:

Trip Planner

Search our weather history database for the weather conditions in past years. The results will help you decide how hot, cold, wet, or windy it might be!

Date:

Astronomy

Apr. 05, 2013 Rise Set
Actual Time 7:16 AM EDT 7:54 PM EDT
Civil Twilight 6:52 AM EDT 8:19 PM EDT
Nautical Twilight 6:23 AM EDT 8:47 PM EDT
Astronomical Twilight 5:54 AM EDT 9:17 PM EDT
Moon 4:04 AM EDT (4/5) 3:34 PM EDT (4/5)
Length of Visible Light 13h 27m
Length of Day
12h 38m
Waning Crescent, 24% of the Moon is Illuminated
Apr 5
Waning Crescent
Apr 10
New
Apr 18
First Quarter
Apr 25
Full
May 2
Last Quarter

Hourly Weather History & Observations

Time (EDT) Temp. Dew Point Humidity Pressure Visibility Wind Dir Wind Speed Gust Speed Precip Events Conditions
12:08 AM 55.4 °F 55.4 °F 100% 29.90 in 9.0 mi NE 8.1 mph - N/A   Overcast
12:22 AM 55.4 °F 55.4 °F 100% 29.90 in 9.0 mi NE 6.9 mph - N/A   Overcast
12:30 AM 55.4 °F 55.4 °F 100% 29.90 in 10.0 mi NNE 3.5 mph - N/A   Overcast
12:34 AM 55.4 °F 55.4 °F 100% 29.91 in 10.0 mi North 5.8 mph - N/A   Overcast
12:48 AM 55.4 °F 53.6 °F 94% 29.91 in 10.0 mi North 8.1 mph - N/A   Overcast
12:58 AM 54.3 °F 54.1 °F 99% 29.92 in 10.0 mi NE 5.8 mph - N/A   Overcast
1:00 AM 53.6 °F 53.6 °F 100% 29.91 in 9.0 mi NE 5.8 mph - N/A   Overcast
1:04 AM 53.6 °F 53.6 °F 100% 29.92 in 6.0 mi North 6.9 mph - N/A   Overcast
1:05 AM 53.6 °F 53.6 °F 100% 29.91 in 6.0 mi North 6.9 mph - N/A Rain Light Rain
1:21 AM 53.6 °F 53.6 °F 100% 29.90 in 7.0 mi North 10.4 mph - N/A Rain Light Rain
1:27 AM 53.6 °F 53.6 °F 100% 29.90 in 9.0 mi North 11.5 mph - N/A   Overcast
1:33 AM 53.6 °F 53.6 °F 100% 29.89 in 10.0 mi North 10.4 mph - N/A   Overcast
1:58 AM 53.2 °F 53.1 °F 99% 29.91 in 10.0 mi North 8.1 mph - 0.00 in   Overcast
2:18 AM 51.8 °F 51.8 °F 100% 29.91 in 10.0 mi North 9.2 mph - N/A Rain Light Rain
2:20 AM 51.8 °F 51.8 °F 100% 29.90 in 8.0 mi North 8.1 mph - N/A Rain Light Rain
2:24 AM 51.8 °F 51.8 °F 100% 29.90 in 7.0 mi North 6.9 mph - N/A Rain Light Rain
2:44 AM 51.8 °F 51.8 °F 100% 29.90 in 8.0 mi North 8.1 mph - N/A Rain Light Rain
2:47 AM 51.8 °F 51.8 °F 100% 29.90 in 9.0 mi North 9.2 mph - N/A   Overcast
2:51 AM 51.8 °F 51.8 °F 100% 29.91 in 10.0 mi North 9.2 mph - N/A   Overcast
2:55 AM 51.8 °F 51.8 °F 100% 29.90 in 10.0 mi North 9.2 mph - N/A Rain Light Rain
2:58 AM 51.8 °F 51.8 °F 100% 29.92 in 10.0 mi North 8.1 mph - 0.00 in Rain Light Rain
3:13 AM 51.8 °F 51.8 °F 100% 29.90 in 10.0 mi NNE 10.4 mph - N/A   Overcast
3:27 AM 51.8 °F 51.8 °F 100% 29.90 in 10.0 mi NNE 8.1 mph - N/A Rain Light Rain
3:39 AM 51.8 °F 50.0 °F 94% 29.89 in 10.0 mi NNE 8.1 mph - N/A Rain Light Rain
3:43 AM 51.8 °F 50.0 °F 94% 29.88 in 10.0 mi NE 9.2 mph - N/A Rain Light Rain
3:46 AM 51.8 °F 50.0 °F 94% 29.88 in 10.0 mi NNE 10.4 mph - N/A   Overcast
3:54 AM 51.8 °F 50.0 °F 94% 29.87 in 9.0 mi NE 5.8 mph - N/A   Overcast
3:58 AM 50.9 °F 50.7 °F 99% 29.89 in 8.0 mi NE 5.8 mph - 0.00 in   Overcast
4:08 AM 50.0 °F 50.0 °F 100% 29.87 in 10.0 mi NE 9.2 mph - N/A   Overcast
4:48 AM 50.0 °F 50.0 °F 100% 29.85 in 10.0 mi NE 6.9 mph - N/A   Overcast
4:58 AM 50.5 °F 50.4 °F 99% 29.87 in 10.0 mi ENE 5.8 mph - N/A   Overcast
5:58 AM 50.4 °F 50.2 °F 99% 29.90 in 10.0 mi North 8.1 mph - N/A   Overcast
6:18 AM 50.0 °F 50.0 °F 100% 29.87 in 10.0 mi North 10.4 mph - N/A   Overcast
6:25 AM 50.0 °F 50.0 °F 100% 29.87 in 10.0 mi NNE 8.1 mph - N/A Rain Light Rain
6:48 AM 50.0 °F 50.0 °F 100% 29.89 in 10.0 mi North 9.2 mph - N/A   Overcast
6:52 AM 50.0 °F 50.0 °F 100% 29.89 in 10.0 mi North 9.2 mph - N/A   Overcast
6:58 AM 50.2 °F 49.8 °F 99% 29.90 in 10.0 mi North 6.9 mph - 0.00 in   Overcast
7:08 AM 50.0 °F 50.0 °F 100% 29.90 in 10.0 mi North 9.2 mph - N/A   Overcast
7:54 AM 50.0 °F 48.2 °F 94% 29.92 in 10.0 mi North 8.1 mph - N/A   Overcast
7:58 AM 49.1 °F 48.9 °F 99% 29.93 in 10.0 mi North 9.2 mph - N/A   Overcast
8:40 AM 48.2 °F 48.2 °F 100% 29.94 in 10.0 mi North 10.4 mph - N/A Rain Light Rain
8:50 AM 48.2 °F 48.2 °F 100% 29.95 in 10.0 mi North 13.8 mph - N/A   Overcast
8:58 AM 48.7 °F 48.6 °F 99% 29.96 in 10.0 mi North 11.5 mph - 0.00 in   Overcast
9:20 AM 48.2 °F 48.2 °F 100% 29.96 in 7.0 mi North 10.4 mph - N/A Rain Light Rain
9:44 AM 48.2 °F 48.2 °F 100% 29.96 in 10.0 mi North 9.2 mph - N/A   Overcast
9:46 AM 48.2 °F 48.2 °F 100% 29.96 in 10.0 mi North 10.4 mph - N/A   Overcast
9:58 AM 48.7 °F 48.4 °F 99% 29.98 in 10.0 mi North 9.2 mph - 0.01 in   Overcast
10:12 AM 50.0 °F 50.0 °F 100% 29.97 in 10.0 mi North 9.2 mph - N/A Rain Light Rain
10:22 AM 50.0 °F 50.0 °F 100% 29.96 in 10.0 mi North 10.4 mph - N/A Rain Light Rain
10:23 AM 50.0 °F 50.0 °F 100% 29.96 in 10.0 mi North 10.4 mph - N/A   Overcast
10:29 AM 50.0 °F 50.0 °F 100% 29.97 in 10.0 mi North 8.1 mph - N/A   Overcast
10:31 AM 50.0 °F 50.0 °F 100% 29.97 in 10.0 mi North 10.4 mph - N/A   Overcast
10:43 AM 50.0 °F 50.0 °F 100% 29.97 in 10.0 mi North 8.1 mph - N/A   Overcast
10:58 AM 50.0 °F 49.6 °F 99% 29.98 in 10.0 mi NNE 11.5 mph - 0.00 in   Overcast
11:18 AM 50.0 °F 50.0 °F 100% 29.98 in 10.0 mi North 10.4 mph - N/A   Overcast
11:28 AM 50.0 °F 50.0 °F 100% 29.98 in 10.0 mi North 12.7 mph - N/A   Overcast
11:58 AM 50.2 °F 48.2 °F 93% 30.00 in 10.0 mi NNW 13.8 mph - N/A   Overcast
12:24 PM 50.0 °F 48.2 °F 94% 29.99 in 10.0 mi NNW 11.5 mph - N/A   Overcast
12:58 PM 50.2 °F 47.5 °F 90% 30.00 in 10.0 mi NNW 15.0 mph - N/A   Overcast
1:04 PM 50.0 °F 48.2 °F 94% 29.99 in 10.0 mi NNW 13.8 mph - N/A   Overcast
1:14 PM 50.0 °F 46.4 °F 87% 29.98 in 10.0 mi NNW 13.8 mph - N/A   Overcast
1:20 PM 50.0 °F 46.4 °F 87% 29.98 in 10.0 mi NNW 12.7 mph - N/A   Overcast
1:36 PM 51.8 °F 48.2 °F 88% 29.97 in 10.0 mi NNW 11.5 mph - N/A   Overcast
1:37 PM 51.8 °F 48.2 °F 88% 29.97 in 10.0 mi NNW 12.7 mph - N/A   Overcast
1:43 PM 51.8 °F 46.4 °F 82% 29.97 in 10.0 mi North 8.1 mph - N/A   Overcast
1:58 PM 51.3 °F 47.3 °F 86% 29.98 in 10.0 mi NNW 8.1 mph - N/A   Overcast
2:12 PM 51.8 °F 48.2 °F 88% 29.96 in 10.0 mi NNW 8.1 mph - N/A   Overcast
2:58 PM 54.0 °F 47.7 °F 79% 29.97 in 10.0 mi North 6.9 mph - N/A   Overcast
3:34 PM 55.4 °F 48.2 °F 77% 29.96 in 10.0 mi NNW 8.1 mph - N/A   Overcast
3:58 PM 57.4 °F 48.7 °F 73% 29.96 in 10.0 mi NNW 8.1 mph - N/A   Overcast
4:58 PM 56.5 °F 48.4 °F 74% 29.97 in 10.0 mi North 10.4 mph - N/A   Overcast
5:32 PM 57.2 °F 48.2 °F 72% 29.97 in 10.0 mi NW 12.7 mph - N/A   Overcast
5:58 PM 57.6 °F 48.7 °F 72% 29.98 in 10.0 mi North 11.5 mph - N/A   Overcast
6:58 PM 57.2 °F 48.0 °F 71% 29.98 in 10.0 mi NNW 15.0 mph - N/A   Overcast
7:58 PM 54.1 °F 47.5 °F 78% 30.00 in 10.0 mi NW 12.7 mph - N/A   Clear
8:58 PM 51.6 °F 47.1 °F 85% 30.04 in 10.0 mi NW 8.1 mph - N/A   Partly Cloudy
9:58 PM 50.0 °F 46.9 °F 89% 30.07 in 10.0 mi NW 8.1 mph - N/A   Scattered Clouds
10:58 PM 48.6 °F 46.9 °F 94% 30.07 in 10.0 mi NW 5.8 mph - N/A   Partly Cloudy
11:58 PM 47.5 °F 46.6 °F 97% 30.08 in 10.0 mi NW 3.5 mph - N/A   Clear